When you browse on this site, cookies collect data to enhance your experience and personalize the content and advertising you see.
Visit our Privacy Policy to learn more. By continuing to use the site, you agree to this use of cookies and data.

Meteo pe oră la Aliaga

Astăzi, 12 August, Miercuri

Timp Temperatura Precipitaţii Vânt Presiune Umiditate
00:00 +18°C° 0.1 mm 1 m/s 658 mmHg 68%
01:00 +18°C° 0.2 mm 1 m/s 658 mmHg 69%
02:00 +18°C° 0.2 mm 1 m/s 657 mmHg 71%
03:00 +18°C° 0.2 mm 1 m/s 657 mmHg 72%
04:00 +18°C° 0 mm 1 m/s 657 mmHg 72%
05:00 +17°C° 0 mm 2 m/s 657 mmHg 72%
06:00 +17°C° 0 mm 2 m/s 657 mmHg 72%
07:00 +19°C° 0 mm 3 m/s 658 mmHg 62%
08:00 +21°C° 0 mm 3 m/s 659 mmHg 53%
09:00 +23°C° 0 mm 4 m/s 659 mmHg 43%
10:00 +26°C° 0 mm 5 m/s 660 mmHg 37%
11:00 +27°C° 0 mm 5 m/s 660 mmHg 31%
12:00 +28°C° 0 mm 6 m/s 660 mmHg 25%
13:00 +28°C° 0 mm 6 m/s 660 mmHg 27%
14:00 +27°C° 0 mm 6 m/s 659 mmHg 28%
15:00 +27°C° 0 mm 6 m/s 659 mmHg 30%
16:00 +27°C° 0 mm 6 m/s 659 mmHg 30%
17:00 +27°C° 0 mm 6 m/s 659 mmHg 30%
18:00 +26°C° 0 mm 5 m/s 659 mmHg 30%
19:00 +23°C° 0 mm 4 m/s 659 mmHg 38%
20:00 +22°C° 0 mm 3 m/s 658 mmHg 45%
21:00 +20°C° 0 mm 2 m/s 658 mmHg 53%
22:00 +19°C° 0 mm 2 m/s 658 mmHg 54%
23:00 +19°C° 0 mm 2 m/s 658 mmHg 56%

Mâine, 13 August, Joi

Timp Temperatura Precipitaţii Vânt Presiune Umiditate
00:00 +18°C° 0 mm 2 m/s 658 mmHg 57%
01:00 +19°C° 0 mm 1 m/s 658 mmHg 56%
02:00 +18°C° 0 mm 1 m/s 658 mmHg 55%
03:00 +18°C° 0 mm 1 m/s 657 mmHg 54%
04:00 +18°C° 0 mm 1 m/s 657 mmHg 54%
05:00 +18°C° 0 mm 1 m/s 658 mmHg 54%
06:00 +18°C° 0 mm 1 m/s 658 mmHg 54%
07:00 +20°C° 0 mm 1 m/s 659 mmHg 46%
08:00 +23°C° 0 mm 1 m/s 659 mmHg 38%
09:00 +25°C° 0 mm 1 m/s 660 mmHg 30%
10:00 +26°C° 0 mm 2 m/s 660 mmHg 27%
11:00 +27°C° 0 mm 2 m/s 660 mmHg 24%
12:00 +28°C° 0 mm 2 m/s 660 mmHg 21%
13:00 +29°C° 0 mm 2 m/s 660 mmHg 20%
14:00 +29°C° 0 mm 3 m/s 660 mmHg 19%
15:00 +30°C° 0 mm 3 m/s 660 mmHg 18%
16:00 +29°C° 0 mm 4 m/s 660 mmHg 24%
17:00 +28°C° 0 mm 4 m/s 660 mmHg 30%
18:00 +27°C° 0 mm 5 m/s 659 mmHg 36%
19:00 +25°C° 0 mm 4 m/s 659 mmHg 44%
20:00 +23°C° 0 mm 2 m/s 659 mmHg 53%
21:00 +22°C° 0 mm 1 m/s 659 mmHg 61%
22:00 +21°C° 0 mm 1 m/s 659 mmHg 59%
23:00 +21°C° 0 mm 1 m/s 659 mmHg 58%

Poimâine, 14 August, Vineri

Timp Temperatura Precipitaţii Vânt Presiune Umiditate
00:00 +21°C° 0 mm 1 m/s 659 mmHg 57%
01:00 +20°C° 0 mm 1 m/s 659 mmHg 58%
02:00 +19°C° 0 mm 1 m/s 659 mmHg 60%
03:00 +19°C° 0 mm 1 m/s 658 mmHg 62%
04:00 +19°C° 0 mm 1 m/s 658 mmHg 60%
05:00 +19°C° 0 mm 1 m/s 659 mmHg 58%
06:00 +19°C° 0 mm 1 m/s 659 mmHg 57%
07:00 +22°C° 0 mm 1 m/s 659 mmHg 49%
08:00 +24°C° 0 mm 2 m/s 660 mmHg 41%
09:00 +26°C° 0 mm 2 m/s 661 mmHg 33%
10:00 +27°C° 0 mm 3 m/s 661 mmHg 32%
11:00 +28°C° 0 mm 4 m/s 661 mmHg 31%
12:00 +29°C° 0 mm 4 m/s 661 mmHg 30%
13:00 +29°C° 0 mm 5 m/s 660 mmHg 30%
14:00 +30°C° 0 mm 5 m/s 660 mmHg 30%
15:00 +30°C° 0 mm 6 m/s 660 mmHg 30%
16:00 +29°C° 0 mm 6 m/s 660 mmHg 30%
17:00 +29°C° 0 mm 6 m/s 659 mmHg 31%
18:00 +28°C° 0 mm 5 m/s 659 mmHg 32%
19:00 +26°C° 0 mm 4 m/s 659 mmHg 43%
20:00 +24°C° 0 mm 3 m/s 659 mmHg 54%
21:00 +21°C° 0 mm 2 m/s 658 mmHg 65%
22:00 +21°C° 0 mm 3 m/s 658 mmHg 64%
23:00 +20°C° 0 mm 3 m/s 658 mmHg 63%

15 August, Sâmbătă

Timp Temperatura Precipitaţii Vânt Presiune Umiditate
00:00 +20°C° 0 mm 3 m/s 658 mmHg 62%
01:00 +20°C° 0 mm 3 m/s 658 mmHg 64%
02:00 +19°C° 0 mm 3 m/s 657 mmHg 67%
03:00 +19°C° 0 mm 2 m/s 657 mmHg 69%
04:00 +19°C° 0 mm 2 m/s 657 mmHg 68%
05:00 +19°C° 0 mm 2 m/s 657 mmHg 67%
06:00 +20°C° 0 mm 1 m/s 657 mmHg 66%
07:00 +21°C° 0 mm 2 m/s 657 mmHg 55%
08:00 +25°C° 0 mm 3 m/s 658 mmHg 43%
09:00 +27°C° 0 mm 3 m/s 659 mmHg 32%
10:00 +28°C° 0 mm 4 m/s 659 mmHg 27%
11:00 +29°C° 0 mm 5 m/s 659 mmHg 23%
12:00 +32°C° 0 mm 6 m/s 659 mmHg 19%
13:00 +32°C° 0 mm 7 m/s 659 mmHg 18%
14:00 +32°C° 0 mm 7 m/s 658 mmHg 17%
15:00 +32°C° 0 mm 8 m/s 658 mmHg 16%
16:00 +30°C° 0 mm 7 m/s 658 mmHg 18%
17:00 +29°C° 0 mm 7 m/s 657 mmHg 20%
18:00 +28°C° 0 mm 6 m/s 657 mmHg 22%
19:00 +26°C° 0 mm 5 m/s 657 mmHg 24%
20:00 +23°C° 0 mm 4 m/s 657 mmHg 26%
21:00 +21°C° 0 mm 3 m/s 656 mmHg 28%
22:00 +20°C° 0 mm 3 m/s 656 mmHg 29%
23:00 +19°C° 0 mm 2 m/s 656 mmHg 30%

16 August, Duminică

Timp Temperatura Precipitaţii Vânt Presiune Umiditate
00:00 +18°C° 0 mm 2 m/s 655 mmHg 31%
01:00 +17°C° 0 mm 2 m/s 655 mmHg 32%
02:00 +17°C° 0 mm 2 m/s 655 mmHg 34%
03:00 +16°C° 0 mm 2 m/s 655 mmHg 35%
04:00 +16°C° 0 mm 2 m/s 655 mmHg 36%
05:00 +16°C° 0 mm 2 m/s 655 mmHg 37%
06:00 +16°C° 0 mm 1 m/s 655 mmHg 38%
07:00 +18°C° 0 mm 2 m/s 656 mmHg 34%
08:00 +20°C° 0 mm 3 m/s 657 mmHg 30%
09:00 +22°C° 0 mm 4 m/s 657 mmHg 26%
10:00 +23°C° 0 mm 4 m/s 658 mmHg 24%
11:00 +25°C° 0 mm 4 m/s 658 mmHg 22%
12:00 +27°C° 0 mm 4 m/s 658 mmHg 19%
13:00 +27°C° 0 mm 4 m/s 658 mmHg 18%
14:00 +28°C° 0 mm 4 m/s 658 mmHg 18%
15:00 +29°C° 0 mm 4 m/s 658 mmHg 17%
16:00 +28°C° 0 mm 4 m/s 657 mmHg 21%
17:00 +26°C° 0 mm 4 m/s 657 mmHg 25%
18:00 +25°C° 0 mm 4 m/s 657 mmHg 28%
19:00 +22°C° 0 mm 3 m/s 657 mmHg 35%
20:00 +21°C° 0 mm 2 m/s 657 mmHg 42%
21:00 +20°C° 0 mm 1 m/s 656 mmHg 49%
22:00 +19°C° 0 mm 1 m/s 656 mmHg 48%
23:00 +19°C° 0 mm 1 m/s 656 mmHg 48%

17 August, Luni

Timp Temperatura Precipitaţii Vânt Presiune Umiditate
00:00 +18°C° 0 mm 1 m/s 656 mmHg 47%
01:00 +16°C° 0 mm 1 m/s 656 mmHg 49%
02:00 +16°C° 0 mm 1 m/s 656 mmHg 50%
03:00 +15°C° 0 mm 1 m/s 656 mmHg 52%
04:00 +14°C° 0 mm 0 m/s 656 mmHg 53%
05:00 +15°C° 0 mm 0 m/s 656 mmHg 54%
06:00 +15°C° 0 mm 0 m/s 656 mmHg 54%
07:00 +19°C° 0 mm 1 m/s 657 mmHg 48%
08:00 +21°C° 0 mm 1 m/s 658 mmHg 41%
09:00 +23°C° 0 mm 1 m/s 658 mmHg 34%
10:00 +24°C° 0 mm 2 m/s 658 mmHg 31%
11:00 +25°C° 0 mm 2 m/s 659 mmHg 27%
12:00 +27°C° 0 mm 2 m/s 659 mmHg 24%
13:00 +27°C° 0 mm 3 m/s 659 mmHg 23%
14:00 +28°C° 0 mm 4 m/s 659 mmHg 22%
15:00 +29°C° 0 mm 5 m/s 659 mmHg 21%
16:00 +28°C° 0 mm 4 m/s 658 mmHg 24%
17:00 +27°C° 0 mm 4 m/s 658 mmHg 28%
18:00 +26°C° 0 mm 3 m/s 658 mmHg 32%
19:00 +24°C° 0 mm 3 m/s 658 mmHg 36%
20:00 +21°C° 0 mm 2 m/s 658 mmHg 40%
21:00 +21°C° 0 mm 1 m/s 658 mmHg 44%
22:00 +20°C° 0 mm 1 m/s 657 mmHg 47%
23:00 +19°C° 0 mm 1 m/s 657 mmHg 49%
Arată mai mult